www.pogodaiklimat.ru
Время
(UTC), дата
18 5.12
21 5.12
00 6.12
03 6.12
06 6.12
09 6.12
12 6.12
15 6.12
18 6.12
21 6.12
00 7.12
03 7.12
06 7.12
09 7.12
12 7.12
15 7.12
18 7.12
21 7.12
00 8.12
03 8.12
06 8.12
09 8.12
12 8.12
15 8.12
18 8.12
21 8.12
00 9.12
03 9.12
06 9.12
09 9.12
12 9.12
15 9.12
18 9.12
21 9.12
00 10.12
03 10.12
06 10.12
09 10.12
12 10.12
15 10.12
18 10.12
21 10.12
00 11.12
03 11.12
06 11.12
09 11.12
12 11.12
15 11.12
18 11.12
21 11.12
00 12.12
03 12.12
06 12.12
09 12.12
12 12.12
15 12.12
Ветер
(напр.,м/с)
Видим. Явления Облачность Т
(С)
Тd
(С)
f
(%)
Тe
(С)
Тes
(С)
Комфортность P
(гПа)
Po
(гПа)
Тmin
(С)
Tmax
(С)
R
(мм)
R24
(мм)
S
(см)
СЗ 6 14 км ясно +21.9 +12.3 54 +24 +24 комфорт 1021.0 1019.7 +26.3
СЗ 3 14 км ясно +21.5 +13.0 58 +24 +24 комфорт 1020.1 1018.8
нст 2 12 км ясно +20.3 +13.1 63 +23 +23 комфорт 1020.0 1018.6
СЗ 3 12 км ясно +19.7 +14.2 71 +22 +22 комфорт 1020.1 1018.7
С 4 16 км н/о +23.5 +13.2 52 +26 +26 жарко 1021.6 1020.3 +19.3
С 8 14 км 1/1 1200 м
[Sc]
+25.4 +15.9 56 +29 +30 душно 1019.2 1017.9
С 8 14 км ясно +25.0 +14.9 53 +28 +28 жарко 1017.3 1016.0
В 4 14 км ясно +23.3 +15.2 60 +27 +27 душно 1018.3 1017.0
нст 1 14 км ясно +22.1 +13.3 57 +25 +25 комфорт 1018.6 1017.3 +25.9
штиль 0 14 км ясно +20.1 +13.5 66 +22 +22 комфорт 1017.8 1016.4
нст 1 14 км ясно +19.8 +13.1 65 +23 +23 комфорт 1016.9 1015.5
нст 2 10 км 1/1 1050 м
[Sc Ac trans]
+20.4 +13.2 63 +23 +23 комфорт 1016.9 1015.6
штиль 0 13 км н/о +25.2 +12.3 45 +27 +27 жарко 1018.0 1016.7 +19.3
ЮВ 12 14 км 1/1 1200 м
[Cu hum Ac trans]
+26.6 +12.1 41 +28 +28 жарко 1015.1 1013.8
ЮВ 15 14 км 3/3 1200 м
[Sc]
+26.2 +13.2 45 +28 +28 жарко 1013.6 1012.3
ЮВ 8 14 км ясно +23.6 +14.6 57 +26 +26 жарко 1014.6 1013.3
ЮВ 3 14 км ясно +21.8 +14.8 64 +25 +25 комфорт 1016.3 1015.0 +27.1
нст 2 14 км 3/0
[Ac trans Ci fib]
+20.7 +16.5 77 +25 +25 комфорт 1015.3 1014.0
ЮВ 7 14 км 8/0
[Ac und]
+21.4 +16.4 73 +25 +25 комфорт 1014.8 1013.5
нст 1 12 км в посл. час гроза 8/1 1050 м
[Cb cap Ac As]
+22.0 +17.2 74 +26 +26 душно 1015.7 1014.4 0.0
В 7 12 км {гроза, дождь} 3/0
[Ac trans]
+26.2 +17.2 58 +30 +31 душно 1017.0 1015.7 +19.9
В 9 14 км 1/0
[Ac trans]
+28.0 +12.2 38 +29 +30 жарко 1014.6 1013.3
ЮВ 9 14 км 5/4 1050 м
[Cu Sc Ac trans]
+25.4 +18.5 66 +30 +30 душно 1013.8 1012.5 0.0
СВ 4 14 км {дождь} 1/1 1350 м
[Sc]
+23.8 +19.0 75 +29 +29 душно 1015.0 1013.7
С 3 14 км 3/0
[Ac trans]
+23.4 +18.5 74 +30 +30 очень
душно
1016.1 1014.8 +28.1
С 4 14 км 3/0
[Ci fib]
+22.2 +19.0 82 +28 +28 душно 1015.5 1014.2
СЗ 4 14 км 1/0
[Ci fib]
+21.6 +18.3 82 +26 +26 душно 1015.4 1014.1 0.2
СЗ 7 14 км 5/1 900 м
[Sc Ac trans Ci fib]
+22.1 +18.5 80 +27 +27 душно 1016.4 1015.1
С 11 14 км ясно +24.9 +18.7 68 +30 +30 душно 1018.1 1016.8 +21.5
С 14 14 км 3/3 900 м
[Sc]
+25.8 +18.9 66 +31 +31 очень
душно
1016.5 1015.2
С 13 14 км 1/0
[Ci fib]
+25.1 +18.4 66 +30 +30 душно 1015.2 1013.9
С 14 14 км 1/0
[Ac trans]
+23.5 +19.4 78 +29 +29 душно 1015.8 1014.5
С 10 12 км 8/3 750 м
[Sc Ac trans]
+24.0 +19.2 75 +29 +29 душно 1016.3 1015.0 +26.2
СВ 11 12 км 9/4 750 м
[Cb cap Ac cast]
+24.3 +20.3 78 +30 +30 очень
душно
1014.5 1013.2
В 9 12 км в посл. час гроза 9/4 750 м
[Cb cap Ac cast]
+22.8 +21.1 90 +30 +30 очень
душно
1015.2 1013.9 6
СВ 2 10 км в посл. час дождь 9/3 900 м
[Cu Sc Ac cast Ci fib]
+22.9 +21.4 91 +30 +30 очень
душно
1016.0 1014.6
Ю 3 10 км в посл. час дождь 8/4 450 м
[Sc Ac trans]
+23.7 +21.3 86 +30 +31 очень
душно
1017.5 1016.2 +22.1
СВ 6 20 км н/о +25.3 +16.8 59 +29 +29 душно 1014.6 1013.3
В 7 8000 м слаб. дождь 10/5 300 м
[Cb calv As op]
+24.6 +22.3 87 +32 +32 очень
душно
1013.4 1012.1 2
В 8 9000 м слаб. дождь 10/5 360 м
[Cb calv As op]
+24.3 +22.2 88 +32 +32 очень
душно
1013.9 1012.6
С 4 1000 м н/о +24.5 +20.1 76 +30 +30 очень
душно
1014.6 1013.3 +25.7
ЮВ 7 14 км {гроза, дождь} 8/3 600 м
[Cb cap Ac trans]
+23.6 +20.7 84 +29 +29 душно 1013.3 1012.0
СЗ 5 7000 м 9/5 360 м
[Sc Ac trans]
+22.8 +21.6 93 +30 +30 очень
душно
1013.4 1012.1 13
СЗ 9 6000 м 8/4 750 м
[Sc Ac trans]
+22.7 +20.8 89 +30 +30 очень
душно
1014.6 1013.3 300
З 5 7000 м мгла 1/1 450 м
[Sc]
+24.8 +20.4 77 +31 +33 очень
душно
1016.1 1014.8 +21.7
нст 9 10 км 3/3 600 м
[Sc]
+25.9 +19.9 70 +32 +32 очень
душно
1014.1 1012.8
СЗ 9 10 км 4/4 900 м
[Cu Sc]
+25.7 +19.4 68 +31 +31 очень
душно
1012.7 1011.4
СЗ 11 12 км 3/3 900 м
[Sc]
+23.3 +18.5 74 +29 +29 душно 1013.8 1012.5
СЗ 9 14 км ясно +22.2 +16.3 69 +26 +26 душно 1015.0 1013.7 +26.8
СЗ 8 14 км ясно +21.2 +15.6 70 +24 +24 комфорт 1015.0 1013.7
СЗ 7 14 км ясно +20.7 +14.2 66 +23 +23 комфорт 1014.9 1013.6
СЗ 7 14 км 4/0
[Ac trans Ci fib]
+20.5 +13.6 65 +23 +23 комфорт 1015.3 1014.0
СЗ 10 14 км 1/0
[Ci fib]
+23.2 +14.1 57 +27 +27 душно 1016.6 1015.3 +20.3
С 12 14 км 1/0
[Ci fib]
+25.1 +15.0 53 +28 +28 жарко 1014.5 1013.2
СЗ 11 14 км 4/0
[Ci fib]
+25.2 +13.9 50 +28 +28 жарко 1013.6 1012.3
СЗ 6 14 км 4/0
[Ci fib]
+22.7 +14.9 61 +26 +26 жарко 1014.0 1012.7
Местоположение метеостанции Доха (Катар): широта 25.25 долгота 51.57 высота над уровнем моря 10 м.
В архиве по умолчанию представлена погода в Дохе за последнюю неделю. Архивные данные за месяц целиком и за предыдущие месяцы, начиная с января 2011 года, Вы можете получить, выбрав интересующий диапазон дат из раскрывающегося списка и нажав кнопку "Найти!".
*Определитесь, кто Вы:
Внимание! Время в таблицах - всемирное. Для получения местного времени необходимо прибавить поправку, которая равна 4 ч.
Смотрите также архив погоды в соседних городах и на ближайших метеорологических станциях:
Партнеры нашего сайта:      
Пояснения к столбцам:
  • Ветер - указаны скорость ветра в м/с - средняя за 10 мин, порывы в срок и между сроками (в фигурных скобках) и направление, откуда дует ветер: С - северный,
  • СВ - северо-восточный, В - восточный, ЮВ - юго-восточный, Ю - южный, ЮЗ - юго-западный, З - западный, СЗ - северо-западный.
  • Видимость - горизонтальная дальность видимости в метрах или километрах. При видимости от 1 до 10 км при отсутствии осадков обычно наблюдается дымка, при ухудшении видимости до 1 км и менее - туман. В сухую погоду видимость может ухудшаться дымом, пылью или мглою.
  • Явления - указаны атмосферные явления, наблюдавшиеся в срок или в последний час перед сроком; фигурными скобками обозначены явления, наблюдавшиеся между сроками (за 1-3 часа до срока); квадратными скобками обозначены град или гололедные отложения с указанием их диаметра в мм.
  • Облачность - указаны через наклонную черту общая и нижняя облачность в баллах и высота нижней границы облаков в метрах; квадратными скобками обозначены формы облаков: Ci - перистые, Cs - перисто-слоистые, Cc - перисто-кучевые, Ac - высококучевые, As - высокослоистые, Sc - слоисто-кучевые, Ns - слоисто-дождевые, Cu - кучевые, Cb - кучево-дождевые. Подробнее классификацию облаков см. в Атласе облаков (PDF).
  • T - Температура воздуха - температура, измеренная на высоте 2 м над землей.
  • Td - Температура точки росы - температура, при понижении до которой содержащийся в воздухе водяной пар достигнет насыщения.
  • f - Относительная влажность воздуха - влажноcть воздуха, измеренная на высоте 2 м над землей.
  • Te - Эффективная температура - температура, которую ощущает одетый по сезону человек в тени. Характеристика душности погоды. При расчете учитывается влияние влажности воздуха и скорости ветра на теплоощущения человека.
  • Tes - Эффективная температура на солнце - температура, которую ощущает человек, с поправкой на солнечный нагрев. Характеристика знойности погоды. Зависит от высоты солнца над горизонтом, облачности и скорости ветра. Ночью, в пасмурную погоду, а также при ветре 12 м/с и более поправка равна нулю.
  • P - Атмосферное давление - приведенное к уровню моря атмосферное давление.
  • Po - Атмосферное давление - измеренное на уровне метеостанции атмосферное давление.
  • Tmin - Минимальная температура - минимум температуры воздуха на высоте 2 м над землей.
  • Tmax - Максимальная температура - максимум температуры воздуха на высоте 2 м над землей.
  • R - Количество осадков - Количество выпавших осадков за период времени, мм. При наведении курсора мыши на число - период времени, за который выпало указанное количество осадков.
  • R24 - Количество осадков - Количество выпавших осадков за 24 часа, мм.
  • S - Снежный покров - Высота снежного покрова, см. При наведении курсора мыши на число - состояние снежного покрова и степень покрытия местности в баллах.